SAEC04 SUMU-SAMM

Flight info

Callsign SAEC04
Flight time 1h 43m
Altitude 38000
Route DAGUS UL405 UGIMI DCT PTA DCT EZE UW68 GPI UM783 USVER
Aircraft A20N/M-SDE2E3FGHIRWXY/LB1

Departure

Time 2026-05-07 19:17
Airport Carrasco General Cesáreo L. Berisso International Airport (SUMU)

Arrival

Time 2026-05-07 21:01
Airport Comodoro D.R. Salomón Airport (SAMM)
Time Latitude Longitude Altitude Speed Heading
2026-05-07 19:06 -34.84056 -56.02784 75 ft 0 kts 85°
2026-05-07 19:15 -34.84054 -56.02783 73 ft 0 kts 59°
2026-05-07 19:15 -34.84052 -56.02782 66 ft 0 kts 37°
2026-05-07 19:15 -34.84045 -56.02781 68 ft 3 kts 19°
2026-05-07 19:15 -34.84023 -56.02788 73 ft 4 kts 323°
2026-05-07 19:16 -34.84018 -56.02826 73 ft 6 kts 271°
2026-05-07 19:16 -34.84018 -56.02892 72 ft 9 kts 270°
2026-05-07 19:16 -34.84019 -56.02984 65 ft 12 kts 266°
2026-05-07 19:16 -34.84023 -56.03068 63 ft 7 kts 327°
2026-05-07 19:17 -34.83838 -56.03084 67 ft 64 kts 358°
2026-05-07 19:17 -34.83141 -56.03093 62 ft 132 kts
2026-05-07 19:17 -34.82059 -56.03132 304 ft 167 kts 352°
2026-05-07 19:17 -34.80903 -56.03276 1022 ft 172 kts 338°
2026-05-07 19:18 -34.79835 -56.03915 1802 ft 171 kts 313°
2026-05-07 19:18 -34.79079 -56.04994 2636 ft 165 kts 291°
2026-05-07 19:18 -34.78769 -56.06304 3448 ft 160 kts 269°
2026-05-07 19:18 -34.78944 -56.07629 4245 ft 160 kts 248°
2026-05-07 19:19 -34.79569 -56.08748 4976 ft 162 kts 225°
2026-05-07 19:19 -34.80528 -56.09467 5684 ft 163 kts 201°
2026-05-07 19:19 -34.81650 -56.09649 6359 ft 165 kts 179°
2026-05-07 19:19 -34.82814 -56.09874 6745 ft 180 kts 211°
2026-05-07 19:20 -34.83672 -56.11046 7088 ft 199 kts 248°
2026-05-07 19:20 -34.83791 -56.12782 7413 ft 223 kts 281°
2026-05-07 19:20 -34.83345 -56.14695 7687 ft 247 kts 276°
2026-05-07 19:20 -34.83325 -56.16873 8012 ft 269 kts 266°
2026-05-07 19:21 -34.83438 -56.19224 8550 ft 284 kts 264°
2026-05-07 19:21 -34.83597 -56.21641 9405 ft 288 kts 263°
2026-05-07 19:21 -34.83772 -56.24099 10077 ft 299 kts 264°
2026-05-07 19:21 -34.83963 -56.26715 10422 ft 320 kts 264°
2026-05-07 19:22 -34.84162 -56.29491 10831 ft 335 kts 264°
2026-05-07 19:22 -34.84361 -56.32327 11665 ft 336 kts 264°
2026-05-07 19:22 -34.84560 -56.35173 12532 ft 338 kts 265°
2026-05-07 19:22 -34.84756 -56.37997 13371 ft 339 kts 265°
2026-05-07 19:23 -34.84956 -56.40865 14091 ft 342 kts 266°
2026-05-07 19:23 -34.85158 -56.43746 14896 ft 340 kts 267°
2026-05-07 19:23 -34.85359 -56.46592 15826 ft 335 kts 269°
2026-05-07 19:23 -34.85558 -56.49420 16711 ft 333 kts 270°
2026-05-07 19:24 -34.85752 -56.52212 17567 ft 330 kts 271°
2026-05-07 19:24 -34.85944 -56.55002 18302 ft 331 kts 272°
2026-05-07 19:24 -34.86133 -56.57832 18764 ft 337 kts 272°
2026-05-07 19:24 -34.86319 -56.60657 19284 ft 341 kts 273°
2026-05-07 19:25 -34.86510 -56.63550 19814 ft 345 kts 273°
2026-05-07 19:25 -34.86706 -56.66522 20356 ft 349 kts 274°
2026-05-07 19:25 -34.86899 -56.69442 20875 ft 353 kts 274°
2026-05-07 19:25 -34.87096 -56.72441 21411 ft 357 kts 275°
2026-05-07 19:26 -34.87294 -56.75466 21917 ft 360 kts 275°
2026-05-07 19:26 -34.87493 -56.78525 22439 ft 364 kts 275°
2026-05-07 19:26 -34.87693 -56.81618 22951 ft 368 kts 276°
2026-05-07 19:26 -34.87895 -56.84742 23408 ft 372 kts 276°
2026-05-07 19:27 -34.88098 -56.87902 23810 ft 376 kts 276°
2026-05-07 19:27 -34.88301 -56.91087 24211 ft 379 kts 276°
2026-05-07 19:27 -34.88507 -56.94308 24601 ft 383 kts 276°
2026-05-07 19:27 -34.88713 -56.97561 24993 ft 387 kts 277°
2026-05-07 19:28 -34.88921 -57.00842 25378 ft 390 kts 277°
2026-05-07 19:28 -34.89128 -57.04121 25749 ft 394 kts 277°
2026-05-07 19:28 -34.89337 -57.07457 26133 ft 397 kts 277°
2026-05-07 19:28 -34.89548 -57.10826 26512 ft 400 kts 277°
2026-05-07 19:29 -34.89759 -57.14218 26892 ft 403 kts 278°
2026-05-07 19:29 -34.89971 -57.17633 27263 ft 405 kts 278°
2026-05-07 19:29 -34.90182 -57.21062 27633 ft 408 kts 278°
2026-05-07 19:29 -34.90393 -57.24521 27971 ft 411 kts 278°
2026-05-07 19:30 -34.90605 -57.28003 28279 ft 413 kts 278°
2026-05-07 19:30 -34.90817 -57.31516 28615 ft 416 kts 278°
2026-05-07 19:30 -34.91029 -57.35046 28934 ft 419 kts 279°
2026-05-07 19:30 -34.91242 -57.38603 29239 ft 421 kts 279°
2026-05-07 19:31 -34.91455 -57.42174 29551 ft 424 kts 279°
2026-05-07 19:31 -34.91668 -57.45767 29829 ft 426 kts 279°
2026-05-07 19:31 -34.91879 -57.49342 30092 ft 429 kts 279°
2026-05-07 19:31 -34.92092 -57.52971 30367 ft 431 kts 279°
2026-05-07 19:32 -34.92305 -57.56621 30627 ft 434 kts 279°
2026-05-07 19:32 -34.92520 -57.60299 30945 ft 434 kts 279°
2026-05-07 19:32 -34.92735 -57.63977 31297 ft 434 kts 279°
2026-05-07 19:32 -34.92948 -57.67644 31643 ft 434 kts 279°
2026-05-07 19:33 -34.93160 -57.71311 32001 ft 433 kts 280°
2026-05-07 19:33 -34.93369 -57.74971 32366 ft 432 kts 280°
2026-05-07 19:33 -34.93577 -57.78626 32703 ft 432 kts 280°
2026-05-07 19:33 -34.93783 -57.82277 33048 ft 431 kts 280°
2026-05-07 19:34 -34.93988 -57.85930 33360 ft 431 kts 281°
2026-05-07 19:34 -34.94189 -57.89565 33659 ft 430 kts 281°
2026-05-07 19:34 -34.94390 -57.93201 33935 ft 430 kts 280°
2026-05-07 19:34 -34.94588 -57.96793 34193 ft 429 kts 280°
2026-05-07 19:35 -34.94785 -58.00420 34453 ft 428 kts 280°
2026-05-07 19:35 -34.94982 -58.04047 34692 ft 428 kts 280°
2026-05-07 19:35 -34.95177 -58.07660 34930 ft 428 kts 280°
2026-05-07 19:35 -34.95371 -58.11280 35151 ft 428 kts 279°
2026-05-07 19:36 -34.95563 -58.14892 35371 ft 427 kts 279°
2026-05-07 19:36 -34.95756 -58.18511 35593 ft 427 kts 279°
2026-05-07 19:36 -34.95948 -58.22125 35807 ft 426 kts 279°
2026-05-07 19:36 -34.96137 -58.25726 36020 ft 426 kts 279°
2026-05-07 19:37 -34.96326 -58.29326 36225 ft 425 kts 279°
2026-05-07 19:37 -34.96513 -58.32932 36426 ft 425 kts 279°
2026-05-07 19:37 -34.96699 -58.36529 36616 ft 425 kts 278°
2026-05-07 19:37 -34.96822 -58.38911 36744 ft 424 kts 278°
2026-05-07 19:38 -34.97065 -58.43674 36987 ft 424 kts 278°
2026-05-07 19:38 -34.97247 -58.47264 37150 ft 424 kts 278°
2026-05-07 19:38 -34.97428 -58.50848 37314 ft 424 kts 277°
2026-05-07 19:38 -34.97607 -58.54430 37465 ft 423 kts 277°
2026-05-07 19:39 -34.97786 -58.58014 37612 ft 424 kts 277°
2026-05-07 19:39 -34.97906 -58.60438 37641 ft 424 kts 277°
2026-05-07 19:39 -34.98259 -58.67556 37641 ft 422 kts 276°
2026-05-07 19:40 -34.98608 -58.74710 37648 ft 423 kts 276°
2026-05-07 19:40 -34.98954 -58.81871 37654 ft 423 kts 276°
2026-05-07 19:41 -34.99297 -58.89041 37656 ft 423 kts 275°
2026-05-07 19:41 -34.99636 -58.96198 37659 ft 423 kts 275°
2026-05-07 19:42 -34.99971 -59.03361 37662 ft 423 kts 275°
2026-05-07 19:42 -35.00299 -59.10477 37654 ft 422 kts 275°
2026-05-07 19:43 -35.00625 -59.17630 37652 ft 422 kts 275°
2026-05-07 19:43 -35.00946 -59.24787 37657 ft 423 kts 275°
2026-05-07 19:44 -35.01264 -59.31952 37654 ft 423 kts 274°
2026-05-07 19:44 -35.01577 -59.39116 37653 ft 423 kts 274°
2026-05-07 19:45 -35.01887 -59.46305 37642 ft 424 kts 274°
2026-05-07 19:45 -35.02193 -59.53516 37672 ft 429 kts 274°
2026-05-07 19:46 -35.02514 -59.60811 37671 ft 432 kts 272°
2026-05-07 19:46 -35.03554 -59.68121 37677 ft 441 kts 264°
2026-05-07 19:47 -35.04872 -59.75389 37677 ft 441 kts 264°
2026-05-07 19:47 -35.06184 -59.82714 37680 ft 442 kts 264°
2026-05-07 19:48 -35.07491 -59.90057 37683 ft 442 kts 264°
2026-05-07 19:48 -35.08790 -59.97389 37684 ft 442 kts 264°
2026-05-07 19:49 -35.10086 -60.04728 37695 ft 442 kts 264°
2026-05-07 19:49 -35.11376 -60.12062 37704 ft 442 kts 264°
2026-05-07 19:50 -35.12653 -60.19344 37703 ft 439 kts 263°
2026-05-07 19:50 -35.13927 -60.26638 37708 ft 437 kts 263°
2026-05-07 19:51 -35.15191 -60.33905 37706 ft 436 kts 263°
2026-05-07 19:51 -35.16441 -60.41129 37707 ft 438 kts 263°
2026-05-07 19:52 -35.17707 -60.48452 37718 ft 438 kts 263°
2026-05-07 19:52 -35.18955 -60.55697 37710 ft 438 kts 263°
2026-05-07 19:53 -35.20207 -60.62992 37715 ft 438 kts 263°
2026-05-07 19:53 -35.21454 -60.70297 37720 ft 439 kts 262°
2026-05-07 19:54 -35.22700 -60.77614 37718 ft 440 kts 262°
2026-05-07 19:54 -35.23943 -60.84947 37717 ft 440 kts 262°
2026-05-07 19:55 -35.25184 -60.92294 37718 ft 441 kts 262°
2026-05-07 19:55 -35.26423 -60.99661 37719 ft 442 kts 262°
2026-05-07 19:56 -35.27653 -61.06995 37726 ft 443 kts 262°
2026-05-07 19:56 -35.28888 -61.14397 37740 ft 444 kts 262°
2026-05-07 19:57 -35.30121 -61.21808 37747 ft 445 kts 262°
2026-05-07 19:57 -35.31356 -61.29248 37755 ft 445 kts 261°
2026-05-07 19:58 -35.32583 -61.36678 37749 ft 443 kts 261°
2026-05-07 19:58 -35.33797 -61.44067 37750 ft 442 kts 261°
2026-05-07 19:59 -35.34997 -61.51407 37752 ft 442 kts 261°
2026-05-07 19:59 -35.36197 -61.58775 37758 ft 441 kts 261°
2026-05-07 20:00 -35.37391 -61.66138 37760 ft 440 kts 261°
2026-05-07 20:00 -35.38578 -61.73476 37761 ft 439 kts 261°
2026-05-07 20:01 -35.39758 -61.80812 37768 ft 438 kts 260°
2026-05-07 20:01 -35.40931 -61.88134 37770 ft 436 kts 260°
2026-05-07 20:02 -35.42094 -61.95417 37771 ft 434 kts 260°
2026-05-07 20:02 -35.43250 -62.02702 37771 ft 437 kts 260°
2026-05-07 20:03 -35.44407 -62.10013 37769 ft 434 kts 260°
2026-05-07 20:03 -35.45544 -62.17223 37773 ft 433 kts 259°
2026-05-07 20:04 -35.46684 -62.24483 37780 ft 433 kts 259°
2026-05-07 20:04 -35.47819 -62.31740 37780 ft 434 kts 259°
2026-05-07 20:05 -35.48949 -62.39003 37784 ft 432 kts 259°
2026-05-07 20:05 -35.50075 -62.46264 37786 ft 433 kts 259°
2026-05-07 20:06 -35.51196 -62.53521 37790 ft 432 kts 259°
2026-05-07 20:06 -35.52313 -62.60780 37801 ft 433 kts 259°
2026-05-07 20:07 -35.53416 -62.67985 37797 ft 432 kts 258°
2026-05-07 20:07 -35.54521 -62.75233 37805 ft 432 kts 258°
2026-05-07 20:08 -35.55622 -62.82483 37802 ft 432 kts 258°
2026-05-07 20:08 -35.56720 -62.89744 37806 ft 432 kts 258°
2026-05-07 20:09 -35.57813 -62.96994 37813 ft 431 kts 258°
2026-05-07 20:10 -35.59435 -63.07825 37814 ft 430 kts 258°
2026-05-07 20:10 -35.59998 -63.15151 37813 ft 432 kts 267°
2026-05-07 20:11 -35.60042 -63.22544 37818 ft 432 kts 266°
2026-05-07 20:11 -35.60178 -63.29923 37817 ft 431 kts 265°
2026-05-07 20:12 -35.60365 -63.37236 37814 ft 430 kts 265°
2026-05-07 20:12 -35.60556 -63.44591 37813 ft 430 kts 265°
2026-05-07 20:13 -35.60742 -63.51939 37813 ft 430 kts 265°
2026-05-07 20:13 -35.60922 -63.59285 37810 ft 430 kts 265°
2026-05-07 20:14 -35.61096 -63.66582 37800 ft 430 kts 264°
2026-05-07 20:14 -35.61266 -63.73918 37796 ft 429 kts 264°
2026-05-07 20:15 -35.61433 -63.81264 37802 ft 429 kts 264°
2026-05-07 20:15 -35.61595 -63.88608 37812 ft 429 kts 264°
2026-05-07 20:16 -35.61752 -63.95941 37826 ft 429 kts 264°
2026-05-07 20:16 -35.61905 -64.03270 37838 ft 429 kts 263°
2026-05-07 20:17 -35.62053 -64.10547 37857 ft 428 kts 263°
2026-05-07 20:17 -35.62197 -64.17879 37865 ft 428 kts 263°
2026-05-07 20:18 -35.62336 -64.25202 37861 ft 427 kts 263°
2026-05-07 20:18 -35.62469 -64.32478 37863 ft 425 kts 263°
2026-05-07 20:19 -35.62600 -64.39746 37868 ft 425 kts 263°
2026-05-07 20:19 -35.62724 -64.46958 37868 ft 424 kts 263°
2026-05-07 20:20 -35.62845 -64.54208 37868 ft 424 kts 262°
2026-05-07 20:20 -35.62961 -64.61441 37874 ft 423 kts 262°
2026-05-07 20:21 -35.63072 -64.68675 37876 ft 423 kts 262°
2026-05-07 20:21 -35.63179 -64.75893 37879 ft 422 kts 262°
2026-05-07 20:22 -35.63282 -64.83101 37880 ft 422 kts 262°
2026-05-07 20:22 -35.63381 -64.90306 37884 ft 421 kts 262°
2026-05-07 20:23 -35.63475 -64.97504 37886 ft 421 kts 262°
2026-05-07 20:23 -35.63564 -65.04649 37888 ft 420 kts 262°
2026-05-07 20:24 -35.63650 -65.11845 37892 ft 420 kts 262°
2026-05-07 20:24 -35.63731 -65.19026 37897 ft 419 kts 262°
2026-05-07 20:25 -35.63809 -65.26202 37905 ft 419 kts 262°
2026-05-07 20:25 -35.63881 -65.33357 37906 ft 418 kts 261°
2026-05-07 20:26 -35.63950 -65.40503 37910 ft 418 kts 262°
2026-05-07 20:26 -35.64013 -65.47586 37903 ft 415 kts 262°
2026-05-07 20:27 -35.64072 -65.54664 37907 ft 413 kts 262°
2026-05-07 20:27 -35.64119 -65.60552 37907 ft 413 kts 262°
2026-05-07 20:28 -35.64170 -65.67585 37912 ft 411 kts 262°
2026-05-07 20:28 -35.64217 -65.74607 37910 ft 410 kts 262°
2026-05-07 20:29 -35.64261 -65.81604 37916 ft 408 kts 262°
2026-05-07 20:29 -35.64300 -65.88531 37920 ft 407 kts 262°
2026-05-07 20:30 -35.64335 -65.95481 37919 ft 406 kts 262°
2026-05-07 20:30 -35.64367 -66.02414 37926 ft 404 kts 262°
2026-05-07 20:31 -35.64368 -66.09329 37924 ft 405 kts 264°
2026-05-07 20:31 -35.64131 -66.16265 37916 ft 405 kts 264°
2026-05-07 20:32 -35.63928 -66.23131 37913 ft 403 kts 264°
2026-05-07 20:32 -35.63713 -66.30014 37921 ft 403 kts 264°
2026-05-07 20:33 -35.63488 -66.36900 37915 ft 402 kts 264°
2026-05-07 20:33 -35.63259 -66.43752 37911 ft 401 kts 264°
2026-05-07 20:34 -35.63028 -66.50569 37901 ft 401 kts 264°
2026-05-07 20:34 -35.62792 -66.57440 37681 ft 404 kts 264°
2026-05-07 20:34 -35.62672 -66.60895 37413 ft 404 kts 264°
2026-05-07 20:35 -35.62549 -66.64341 37148 ft 404 kts 264°
2026-05-07 20:35 -35.62425 -66.67791 36805 ft 402 kts 264°
2026-05-07 20:35 -35.62301 -66.71209 36244 ft 401 kts 263°
2026-05-07 20:35 -35.62177 -66.74642 35572 ft 402 kts 263°
2026-05-07 20:36 -35.62050 -66.78061 35104 ft 399 kts 263°
2026-05-07 20:36 -35.61924 -66.81465 34954 ft 402 kts 262°
2026-05-07 20:36 -35.61801 -66.84940 34913 ft 408 kts 262°
2026-05-07 20:37 -35.61538 -66.91910 34910 ft 406 kts 262°
2026-05-07 20:37 -35.61274 -66.98803 34911 ft 406 kts 262°
2026-05-07 20:38 -35.61006 -67.05744 34910 ft 405 kts 262°
2026-05-07 20:38 -35.60736 -67.12651 34910 ft 404 kts 262°
2026-05-07 20:39 -35.60464 -67.19547 34908 ft 404 kts 262°
2026-05-07 20:39 -35.60186 -67.26441 34916 ft 403 kts 262°
2026-05-07 20:40 -35.59908 -67.33265 34908 ft 402 kts 262°
2026-05-07 20:40 -35.59624 -67.40135 34907 ft 401 kts 262°
2026-05-07 20:41 -35.59337 -67.46979 34905 ft 400 kts 262°
2026-05-07 20:41 -35.59046 -67.53808 34906 ft 400 kts 262°
2026-05-07 20:42 -35.58753 -67.60620 34903 ft 399 kts 262°
2026-05-07 20:42 -35.58457 -67.67416 34902 ft 398 kts 262°
2026-05-07 20:43 -35.58159 -67.74158 34902 ft 397 kts 262°
2026-05-07 20:43 -35.57855 -67.80934 34901 ft 396 kts 261°
2026-05-07 20:44 -35.57549 -67.87683 34898 ft 395 kts 261°
2026-05-07 20:44 -35.57241 -67.94418 34899 ft 394 kts 261°
2026-05-07 20:44 -35.57084 -67.97772 34690 ft 392 kts 261°
2026-05-07 20:45 -35.56930 -68.01113 34109 ft 392 kts 260°
2026-05-07 20:45 -35.56937 -68.04405 33233 ft 387 kts 255°
2026-05-07 20:45 -35.57149 -68.07739 31912 ft 397 kts 255°
2026-05-07 20:45 -35.57382 -68.11160 30727 ft 406 kts 256°
2026-05-07 20:46 -35.57612 -68.14647 29579 ft 413 kts 257°
2026-05-07 20:46 -35.57832 -68.18175 28589 ft 414 kts 258°
2026-05-07 20:46 -35.58041 -68.21684 27886 ft 409 kts 258°
2026-05-07 20:46 -35.58244 -68.25148 27188 ft 404 kts 258°
2026-05-07 20:47 -35.58446 -68.28568 26597 ft 399 kts 258°
2026-05-07 20:47 -35.58645 -68.31941 26016 ft 393 kts 258°
2026-05-07 20:47 -35.58842 -68.35261 25452 ft 387 kts 258°
2026-05-07 20:47 -35.59036 -68.38533 24848 ft 382 kts 258°
2026-05-07 20:48 -35.59230 -68.41770 24307 ft 377 kts 258°
2026-05-07 20:48 -35.59421 -68.44974 23748 ft 373 kts 258°
2026-05-07 20:48 -35.59608 -68.48153 23130 ft 370 kts 258°
2026-05-07 20:48 -35.59789 -68.51284 22580 ft 366 kts 258°
2026-05-07 20:49 -35.59968 -68.54391 22030 ft 362 kts 258°
2026-05-07 20:49 -35.60144 -68.57432 21458 ft 358 kts 258°
2026-05-07 20:49 -35.60318 -68.60471 20925 ft 354 kts 258°
2026-05-07 20:49 -35.60489 -68.63478 20374 ft 351 kts 258°
2026-05-07 20:50 -35.60658 -68.66458 19828 ft 347 kts 258°
2026-05-07 20:50 -35.60826 -68.69405 19289 ft 344 kts 258°
2026-05-07 20:50 -35.60994 -68.72344 18719 ft 343 kts 258°
2026-05-07 20:50 -35.61158 -68.75261 18135 ft 342 kts 258°
2026-05-07 20:51 -35.61321 -68.78159 17612 ft 337 kts 258°
2026-05-07 20:51 -35.61480 -68.81012 17067 ft 333 kts 258°
2026-05-07 20:51 -35.61635 -68.83805 16545 ft 330 kts 258°
2026-05-07 20:51 -35.61791 -68.86605 16017 ft 326 kts 259°
2026-05-07 20:52 -35.61944 -68.89383 15493 ft 325 kts 259°
2026-05-07 20:52 -35.62096 -68.92149 14968 ft 323 kts 259°
2026-05-07 20:52 -35.62248 -68.94901 14435 ft 322 kts 259°
2026-05-07 20:52 -35.62399 -68.97650 13918 ft 322 kts 260°
2026-05-07 20:53 -35.62549 -69.00397 13364 ft 321 kts 260°
2026-05-07 20:53 -35.62697 -69.03137 12828 ft 319 kts 260°
2026-05-07 20:53 -35.62841 -69.05820 12319 ft 317 kts 261°
2026-05-07 20:53 -35.62985 -69.08515 11803 ft 315 kts 261°
2026-05-07 20:54 -35.63129 -69.11208 11282 ft 314 kts 261°
2026-05-07 20:54 -35.63270 -69.13876 10768 ft 313 kts 261°
2026-05-07 20:54 -35.63412 -69.16548 10193 ft 314 kts 261°
2026-05-07 20:54 -35.63549 -69.19187 10001 ft 303 kts 262°
2026-05-07 20:55 -35.63677 -69.21719 9888 ft 289 kts 261°
2026-05-07 20:55 -35.63799 -69.24136 9743 ft 278 kts 261°
2026-05-07 20:55 -35.63921 -69.26479 9416 ft 272 kts 261°
2026-05-07 20:55 -35.64041 -69.28783 9077 ft 268 kts 261°
2026-05-07 20:56 -35.64163 -69.31075 8634 ft 268 kts 262°
2026-05-07 20:56 -35.64283 -69.33355 8211 ft 267 kts 262°
2026-05-07 20:56 -35.64400 -69.35606 7787 ft 267 kts 262°
2026-05-07 20:56 -35.64515 -69.37865 7528 ft 260 kts 262°
2026-05-07 20:57 -35.64623 -69.40050 7318 ft 251 kts 263°
2026-05-07 20:57 -35.64727 -69.42142 7272 ft 237 kts 263°
2026-05-07 20:57 -35.64748 -69.44112 7262 ft 225 kts 275°
2026-05-07 20:57 -35.64111 -69.45821 7275 ft 221 kts 304°
2026-05-07 20:58 -35.62916 -69.46925 7276 ft 212 kts 320°
2026-05-07 20:58 -35.61662 -69.47863 7293 ft 215 kts 319°
2026-05-07 20:58 -35.60391 -69.48837 7231 ft 214 kts 319°
2026-05-07 20:58 -35.59142 -69.49787 7063 ft 209 kts 319°
2026-05-07 20:59 -35.57911 -69.50727 6799 ft 207 kts 319°
2026-05-07 20:59 -35.56697 -69.51658 6521 ft 205 kts 319°
2026-05-07 20:59 -35.55526 -69.52551 6407 ft 188 kts 319°
2026-05-07 20:59 -35.54483 -69.53332 6244 ft 168 kts 321°
2026-05-07 21:00 -35.53470 -69.53988 5816 ft 158 kts 324°
2026-05-07 21:00 -35.52570 -69.54672 5452 ft 148 kts 319°
2026-05-07 21:00 -35.51732 -69.55364 5116 ft 140 kts 318°
2026-05-07 21:00 -35.50982 -69.56023 4871 ft 127 kts 316°
2026-05-07 21:01 -35.50282 -69.56640 4685 ft 128 kts 318°
2026-05-07 21:01 -35.49631 -69.57221 4676 ft 92 kts 324°
2026-05-07 21:01 -35.49274 -69.57527 4676 ft 34 kts 323°
2026-05-07 21:01 -35.49122 -69.57655 4675 ft 25 kts 328°
2026-05-07 21:02 -35.48983 -69.57774 4675 ft 23 kts 326°
2026-05-07 21:02 -35.48858 -69.57882 4669 ft 21 kts 324°
2026-05-07 21:02 -35.48742 -69.57985 4671 ft 19 kts 323°
2026-05-07 21:02 -35.48638 -69.58072 4678 ft 18 kts 324°
2026-05-07 21:03 -35.48539 -69.58162 4677 ft 17 kts 325°
2026-05-07 21:03 -35.48444 -69.58244 4676 ft 16 kts 324°
2026-05-07 21:03 -35.48364 -69.58346 4670 ft 17 kts 296°
2026-05-07 21:03 -35.48338 -69.58407 4671 ft 0 kts 294°